This is the latest recevied weather packets stored in our database for station/object DO1SN-13. If no packets are shown the sender has not sent any weather packets the latest 10 day(s).
| Time | Temp. | Humidity | Pressure | Rain* | Wind** | Luminosity | Snow |
|---|---|---|---|---|---|---|---|
| 1788532150 | 36.11° C | - | 1017.5 hPa | 0 mm | - | - | - |
| 1788531786 | 36.11° C | - | 1017.6 hPa | 0 mm | - | - | - |
| 1788531786 | 36.11° C | - | 1017.6 hPa | 0 mm | - | - | - |
| 1788531421 | 36.67° C | - | 1017.6 hPa | 0 mm | - | - | - |
| 1788531057 | 36.11° C | - | 1017.7 hPa | 0 mm | - | - | - |
| 1788529965 | 36.67° C | - | 1017.9 hPa | 0 mm | - | - | - |
| 1788529601 | 36.67° C | - | 1017.9 hPa | 0 mm | - | - | - |
| 1788527780 | 35.56° C | - | 1018.4 hPa | 0 mm | - | - | - |
| 1788527416 | 37.22° C | - | 1018.5 hPa | 0 mm | - | - | - |
| 1788524502 | 36.67° C | - | 1019.2 hPa | 0 mm | - | - | - |
| 1788524138 | 36.67° C | - | 1019.2 hPa | 0 mm | - | - | - |
| 1788521953 | 35° C | - | 1019.6 hPa | 0 mm | - | - | - |
| 1788521589 | 35° C | - | 1019.8 hPa | 0 mm | - | - | - |
| 1788521224 | 34.44° C | - | 1020 hPa | 0 mm | - | - | - |
| 1788520860 | 33.89° C | - | 1019.8 hPa | 0 mm | - | - | - |
| 1788520131 | 35° C | - | 1020.1 hPa | 0 mm | - | - | - |
| 1788518673 | 33.89° C | - | 1020.4 hPa | 0 mm | - | - | - |
| 1788518308 | 35.56° C | - | 1020.5 hPa | 0 mm | - | - | - |
| 1788517944 | 34.44° C | - | 1020.5 hPa | 0 mm | - | - | - |
| 1788517580 | 35° C | - | 1020.6 hPa | 0 mm | - | - | - |
| 1788517216 | 35° C | - | 1020.8 hPa | 0 mm | - | - | - |
| 1788516487 | 33.89° C | - | 1020.9 hPa | 0 mm | - | - | - |
| 1788516487 | 33.89° C | - | 1020.9 hPa | 0 mm | - | - | - |
| 1788516122 | 32.78° C | - | 1021.1 hPa | 0 mm | - | - | - |
| 1788515758 | 32.78° C | - | 1021.1 hPa | 0 mm | - | - | - |
* Rain latest hour (hover to see other rain measurements)
** Current wind speed in m/s (hover to see current wind gust speed)